When you browse on this site, cookies collect data to enhance your experience and personalize the content and advertising you see.
Visit our Privacy Policy to learn more. By continuing to use the site, you agree to this use of cookies and data.
  • In Deutschland
  • Länderverzeichnis
  • Für 7 Tage
  • Wassertemperatur
  • Wetterkarte
  • Widgets
  • user-avatar
    Anmelden

    Stündliche Wetter Visim

    Heute, 20 Oktober, Sonntag

    Zeit Temperatur Niederschläge Wind Luftdruck Luftfeuchtigkeit
    00:00 -8°C° 0 mm 1 m/S 747 mmHg 88%
    01:00 -8°C° 0 mm 1 m/S 747 mmHg 89%
    02:00 -8°C° 0 mm 1 m/S 747 mmHg 89%
    03:00 -8°C° 0 mm 1 m/S 747 mmHg 89%
    04:00 -8°C° 0 mm 1 m/S 747 mmHg 88%
    05:00 -9°C° 0 mm 2 m/S 747 mmHg 88%
    06:00 -9°C° 0 mm 2 m/S 747 mmHg 88%
    07:00 -10°C° 0 mm 2 m/S 747 mmHg 88%
    08:00 -8°C° 0 mm 2 m/S 747 mmHg 81%
    09:00 -6°C° 0 mm 2 m/S 747 mmHg 74%
    10:00 -4°C° 0 mm 2 m/S 747 mmHg 67%
    11:00 -4°C° 0 mm 3 m/S 747 mmHg 65%
    12:00 -2°C° 0 mm 3 m/S 746 mmHg 64%
    13:00 -1°C° 0 mm 3 m/S 746 mmHg 62%
    14:00 -1°C° 0 mm 3 m/S 745 mmHg 68%
    15:00 -2°C° 0 mm 3 m/S 745 mmHg 73%
    16:00 -2°C° 0 mm 3 m/S 745 mmHg 79%
    17:00 -2°C° 0 mm 3 m/S 745 mmHg 80%
    18:00 -4°C° 0 mm 3 m/S 745 mmHg 82%
    19:00 -4°C° 0 mm 4 m/S 744 mmHg 83%
    20:00 -4°C° 0 mm 4 m/S 744 mmHg 82%
    21:00 -3°C° 0 mm 4 m/S 743 mmHg 82%
    22:00 -4°C° 0 mm 5 m/S 743 mmHg 81%
    23:00 -4°C° 0 mm 5 m/S 743 mmHg 82%

    Morgen, 21 Oktober, Montag

    Zeit Temperatur Niederschläge Wind Luftdruck Luftfeuchtigkeit
    00:00 -2°C° 0 mm 5 m/S 742 mmHg 84%
    01:00 -2°C° 0 mm 5 m/S 742 mmHg 86%
    02:00 -2°C° 0.3 mm 5 m/S 742 mmHg 87%
    03:00 -2°C° 0.3 mm 5 m/S 742 mmHg 89%
    04:00 -2°C° 0.3 mm 5 m/S 741 mmHg 90%
    05:00 -2°C° 0.2 mm 5 m/S 741 mmHg 90%
    06:00 -1°C° 0.2 mm 5 m/S 741 mmHg 91%
    07:00 -1°C° 0.2 mm 4 m/S 740 mmHg 91%
    08:00 -1°C° 0.1 mm 4 m/S 740 mmHg 91%
    09:00 -1°C° 0.1 mm 4 m/S 740 mmHg 91%
    10:00 -1°C° 0.1 mm 4 m/S 740 mmHg 91%
    11:00 -1°C° 0.3 mm 4 m/S 740 mmHg 92%
    12:00 -1°C° 0.3 mm 4 m/S 739 mmHg 92%
    13:00 -1°C° 0.3 mm 4 m/S 739 mmHg 93%
    14:00 0°C° 0.1 mm 4 m/S 739 mmHg 93%
    15:00 0°C° 0.1 mm 4 m/S 739 mmHg 94%
    16:00 0°C° 0.1 mm 4 m/S 738 mmHg 94%
    17:00 0°C° 0.1 mm 4 m/S 738 mmHg 94%
    18:00 0°C° 0.1 mm 4 m/S 738 mmHg 95%
    19:00 0°C° 0.1 mm 4 m/S 737 mmHg 96%
    20:00 0°C° 0.2 mm 4 m/S 737 mmHg 95%
    21:00 0°C° 0.2 mm 5 m/S 736 mmHg 95%
    22:00 0°C° 0.2 mm 5 m/S 735 mmHg 95%
    23:00 +1°C° 0.1 mm 6 m/S 734 mmHg 94%

    übermorgen, 22 Oktober, Dienstag

    Zeit Temperatur Niederschläge Wind Luftdruck Luftfeuchtigkeit
    00:00 +1°C° 0.1 mm 6 m/S 733 mmHg 93%
    01:00 +2°C° 0.1 mm 6 m/S 732 mmHg 92%
    02:00 +2°C° 0.7 mm 7 m/S 731 mmHg 91%
    03:00 +2°C° 0.7 mm 7 m/S 730 mmHg 91%
    04:00 +2°C° 0.7 mm 7 m/S 729 mmHg 90%
    05:00 +3°C° 0.8 mm 7 m/S 729 mmHg 90%
    06:00 +3°C° 0.8 mm 7 m/S 728 mmHg 91%
    07:00 +4°C° 0.8 mm 7 m/S 728 mmHg 91%
    08:00 +3°C° 0.1 mm 7 m/S 728 mmHg 88%
    09:00 +3°C° 0.1 mm 7 m/S 728 mmHg 86%
    10:00 +3°C° 0.1 mm 7 m/S 728 mmHg 83%
    11:00 +2°C° 0 mm 7 m/S 728 mmHg 84%
    12:00 +2°C° 0 mm 6 m/S 729 mmHg 86%
    13:00 +2°C° 0 mm 6 m/S 729 mmHg 87%
    14:00 +1°C° 0 mm 6 m/S 729 mmHg 88%
    15:00 +1°C° 0 mm 5 m/S 730 mmHg 90%
    16:00 +1°C° 0 mm 5 m/S 730 mmHg 91%
    17:00 +1°C° 0.1 mm 5 m/S 731 mmHg 92%
    18:00 0°C° 0.1 mm 5 m/S 732 mmHg 92%
    19:00 0°C° 0.1 mm 5 m/S 732 mmHg 92%
    20:00 0°C° 0 mm 5 m/S 732 mmHg 91%
    21:00 -1°C° 0 mm 4 m/S 733 mmHg 90%
    22:00 -1°C° 0 mm 4 m/S 733 mmHg 89%
    23:00 -1°C° 0 mm 4 m/S 733 mmHg 89%

    23 Oktober, Mittwoch

    Zeit Temperatur Niederschläge Wind Luftdruck Luftfeuchtigkeit
    00:00 -2°C° 0 mm 4 m/S 734 mmHg 89%
    01:00 -1°C° 0 mm 3 m/S 734 mmHg 89%
    02:00 -2°C° 0 mm 3 m/S 734 mmHg 89%
    03:00 -2°C° 0 mm 3 m/S 735 mmHg 89%
    04:00 -4°C° 0 mm 3 m/S 735 mmHg 89%
    05:00 -4°C° 0 mm 3 m/S 736 mmHg 90%
    06:00 -5°C° 0 mm 3 m/S 736 mmHg 91%
    07:00 -5°C° 0 mm 3 m/S 736 mmHg 92%
    08:00 -5°C° 0 mm 3 m/S 736 mmHg 88%
    09:00 -4°C° 0 mm 3 m/S 736 mmHg 84%
    10:00 -4°C° 0 mm 3 m/S 736 mmHg 80%
    11:00 -2°C° 0 mm 3 m/S 736 mmHg 79%
    12:00 -1°C° 0 mm 3 m/S 736 mmHg 78%
    13:00 -1°C° 0 mm 3 m/S 736 mmHg 76%
    14:00 -1°C° 0 mm 3 m/S 736 mmHg 77%
    15:00 -2°C° 0 mm 3 m/S 736 mmHg 78%
    16:00 -2°C° 0 mm 3 m/S 736 mmHg 78%
    17:00 -3°C° 0 mm 4 m/S 735 mmHg 79%
    18:00 -3°C° 0 mm 4 m/S 735 mmHg 81%
    19:00 -4°C° 0 mm 4 m/S 735 mmHg 82%
    20:00 -4°C° 0 mm 5 m/S 735 mmHg 82%
    21:00 -4°C° 0 mm 5 m/S 734 mmHg 82%
    22:00 -4°C° 0 mm 5 m/S 734 mmHg 81%
    23:00 -2°C° 0 mm 5 m/S 733 mmHg 84%

    24 Oktober, Donnerstag

    Zeit Temperatur Niederschläge Wind Luftdruck Luftfeuchtigkeit
    00:00 -2°C° 0 mm 6 m/S 733 mmHg 87%
    01:00 -1°C° 0 mm 6 m/S 732 mmHg 89%
    02:00 -1°C° 0.1 mm 6 m/S 732 mmHg 90%
    03:00 +1°C° 0.1 mm 5 m/S 731 mmHg 92%
    04:00 +1°C° 0.1 mm 5 m/S 731 mmHg 93%
    05:00 +1°C° 0 mm 5 m/S 731 mmHg 93%
    06:00 +2°C° 0 mm 6 m/S 730 mmHg 93%
    07:00 +2°C° 0 mm 6 m/S 730 mmHg 93%
    08:00 +3°C° 0 mm 6 m/S 730 mmHg 92%
    09:00 +3°C° 0 mm 6 m/S 730 mmHg 92%
    10:00 +3°C° 0 mm 6 m/S 730 mmHg 91%
    11:00 +3°C° 0 mm 6 m/S 730 mmHg 91%
    12:00 +5°C° 0 mm 5 m/S 730 mmHg 91%
    13:00 +5°C° 0 mm 5 m/S 730 mmHg 91%
    14:00 +3°C° 0 mm 5 m/S 730 mmHg 92%
    15:00 +3°C° 0 mm 5 m/S 730 mmHg 92%
    16:00 +3°C° 0 mm 5 m/S 730 mmHg 92%
    17:00 +4°C° 0 mm 4 m/S 730 mmHg 93%
    18:00 +4°C° 0 mm 4 m/S 731 mmHg 94%
    19:00 +4°C° 0 mm 4 m/S 731 mmHg 94%
    20:00 +4°C° 0 mm 3 m/S 731 mmHg 94%
    21:00 +3°C° 0 mm 3 m/S 732 mmHg 94%
    22:00 +3°C° 0 mm 3 m/S 732 mmHg 94%
    23:00 +3°C° 0 mm 3 m/S 732 mmHg 94%

    25 Oktober, Freitag

    Zeit Temperatur Niederschläge Wind Luftdruck Luftfeuchtigkeit
    00:00 +3°C° 0 mm 3 m/S 732 mmHg 94%
    01:00 +3°C° 0 mm 3 m/S 732 mmHg 94%
    02:00 +3°C° 0 mm 3 m/S 733 mmHg 95%
    03:00 +2°C° 0 mm 3 m/S 733 mmHg 95%
    04:00 +2°C° 0 mm 3 m/S 733 mmHg 96%
    05:00 +2°C° 0 mm 3 m/S 733 mmHg 95%
    06:00 +2°C° 0 mm 3 m/S 733 mmHg 95%
    07:00 +2°C° 0 mm 3 m/S 734 mmHg 95%
    08:00 +3°C° 0 mm 3 m/S 734 mmHg 93%
    09:00 +3°C° 0 mm 3 m/S 734 mmHg 90%
    10:00 +4°C° 0 mm 3 m/S 734 mmHg 87%
    11:00 +5°C° 0 mm 4 m/S 733 mmHg 88%
    12:00 +5°C° 0 mm 4 m/S 733 mmHg 88%
    13:00 +6°C° 0 mm 4 m/S 733 mmHg 88%
    14:00 +6°C° 0 mm 4 m/S 733 mmHg 89%
    15:00 +6°C° 0 mm 5 m/S 733 mmHg 89%
    16:00 +6°C° 0 mm 5 m/S 732 mmHg 90%
    17:00 +5°C° 0 mm 5 m/S 732 mmHg 89%
    18:00 +5°C° 0 mm 5 m/S 733 mmHg 88%
    19:00 +3°C° 0 mm 5 m/S 733 mmHg 87%
    20:00 +3°C° 0 mm 5 m/S 733 mmHg 87%
    21:00 +4°C° 0 mm 4 m/S 733 mmHg 88%
    22:00 +4°C° 0 mm 4 m/S 733 mmHg 88%
    23:00 +4°C° 0 mm 4 m/S 733 mmHg 88%
    Mehr zeigen